This is the latest recevied weather packets stored in our database for station/object OZ1IEP-5. If no packets are shown the sender has not sent any weather packets the latest 10 day(s).
| Time | Temp. | Humidity | Pressure | Rain* | Wind** | Luminosity | Snow |
|---|---|---|---|---|---|---|---|
| 1787657410 | 21.67° C | 54% | 1019.4 hPa | 0 mm | - | 786 W/m² | - |
| 1787656806 | 21.11° C | 60% | 1019.5 hPa | 0 mm | - | 761 W/m² | - |
| 1787656205 | 21.11° C | 60% | 1019.6 hPa | 0 mm | - | 204 W/m² | - |
| 1787655608 | 21.11° C | 61% | 1019.5 hPa | 0 mm | - | 765 W/m² | - |
| 1787655005 | 21.67° C | 63% | 1019.5 hPa | 0 mm | - | 780 W/m² | - |
| 1787654405 | 21.11° C | 66% | 1019.5 hPa | 0 mm | - | 752 W/m² | - |
| 1787653809 | 21.11° C | 67% | 1019.7 hPa | 0 mm | - | 751 W/m² | - |
| 1787653205 | 21.11° C | 70% | 1019.7 hPa | 0 mm | - | 715 W/m² | - |
| 1787652605 | 20.56° C | 72% | 1019.7 hPa | 0 mm | - | 701 W/m² | - |
| 1787652008 | 20.56° C | 73% | 1019.8 hPa | 0 mm | - | 687 W/m² | - |
| 1787651405 | 20° C | 74% | 1019.8 hPa | 0 mm | - | 677 W/m² | - |
| 1787650806 | 20° C | 73% | 1019.5 hPa | 0 mm | - | 659 W/m² | - |
| 1787650208 | 19.44° C | 76% | 1019.6 hPa | 0 mm | - | 543 W/m² | - |
| 1787649606 | 19.44° C | 79% | 1019.5 hPa | 0 mm | - | 380 W/m² | - |
| 1787649005 | 18.89° C | 82% | 1019.4 hPa | 0 mm | - | 552 W/m² | - |
| 1787648408 | 18.33° C | 86% | 1019.7 hPa | 0 mm | - | 468 W/m² | - |
| 1787647806 | 17.78° C | 90% | 1019.7 hPa | 0 mm | - | 575 W/m² | - |
| 1787647205 | 17.22° C | 91% | 1019.6 hPa | 0 mm | - | 561 W/m² | - |
| 1787646608 | 16.67° C | 92% | 1019.5 hPa | 0 mm | - | 529 W/m² | - |
| 1787646006 | 16.67° C | 93% | 1019.5 hPa | 0 mm | - | 497 W/m² | - |
| 1787645406 | 16.11° C | 93% | 1019.4 hPa | 0 mm | - | 468 W/m² | - |
| 1787644808 | 15.56° C | 93% | 1019.4 hPa | 0 mm | - | 40 W/m² | - |
| 1787644206 | 16.11° C | 94% | 1019.4 hPa | 0 mm | - | 39 W/m² | - |
| 1787643606 | 15.56° C | 93% | 1019.3 hPa | 0 mm | - | 40 W/m² | - |
| 1787643008 | 15.56° C | 94% | 1019.3 hPa | 0 mm | - | 47 W/m² | - |
* Rain latest hour (hover to see other rain measurements)
** Current wind speed in m/s (hover to see current wind gust speed)